Location: Newark
(35.2672°N, 80.7344°W)
Time: 01:00:44
(UTC+00:00)

Transit 2A Rocket - Pass Details

Date: 27 January 2020
Orbit: 591 x 911 km, 66.7° (Epoch: 20 February)

Event Time Altitude Azimuth Distance (km) Brightness Sun altitude
Rises 18:05:30 0° 347° (NNW) 3,043 7.6 35.8°
Reaches altitude 10° 18:08:13 10° 3° (N) 2,180 7.0 35.7°
Maximum altitude 18:12:07 22° 55° (NE) 1,574 6.5 35.6°
Drops below altitude 10° 18:16:15 10° 106° (ESE) 2,340 7.7 35.4°
Sets 18:19:16 0° 120° (ESE) 3,327 8.5 35.3°
